Regional Weather Roundup
Issued by NWS

Home | Current Version | Previous Version | Graphics & Text | Print | Product List | Glossary On
Versions: 1 2 3 4 5 6 7 8 9 10 11 12 13 14 15 16 17 18 19 20 21 22 23 24 25 26 27 28 29 30 31 32 33 34 35 36 37 38 39 40 41 42 43 44 45 46 47 48 49 50
000
ASUS45 KTFX 230204
RWRMT
MONTANA HOURLY WEATHER ROUNDUP
NATIONAL WEATHER SERVICE GREAT FALLS MT
804 PM MDT MON SEP 22 2014

NOTE: "FAIR" INDICATES FEW OR NO CLOUDS BELOW 12000 FEET WITH NO
SIGNIFICANT WEATHER AND/OR OBSTRUCTIONS TO VISIBILITY.

* THESE STATIONS ARE NOT UNDER NWS QUALITY CONTROL. THEY DO NOT
   REPORT WEATHER SUCH AS PRECIPITATION OR FOG.

MTZ001>007-043-230300-
WEST OF THE DIVIDE
CITY           SKY/WX    TMP DP  RH WIND       PRES   REMARKS
KALISPELL      PTCLDY    64  48  56 W5        29.90R
MISSOULA       PTCLDY    75  39  27 CALM      29.94R
BUTTE          CLOUDY    61  48  62 CALM      30.10R
MULLAN PASS    CLOUDY    61  43  52 W8        30.12S
* ESSEX        N/A       63  49  60 E1         N/A
* LINCOLN      N/A       76  37  24 SW4G9      N/A
* POLSON       N/A       71  45  39 N/A        N/A
* RONAN APT    PTCLDY    73  46  38 S5         N/A
* SEELEY LAKE  N/A       75  34  22 NW4G12     N/A
* THOMP F APT  MOCLDY    55  52  90 NE2G7      N/A
$$

MTZ008-052>055-230300-
SOUTHWEST MONTANA
CITY           SKY/WX    TMP DP  RH WIND       PRES   REMARKS
BOZEMAN        CLOUDY    63  54  73 S5        30.04R
DILLON         CLOUDY    61  52  72 CALM      30.09R
W YELLOWSTONE  MOCLDY    54  48  80 SW12      30.20R
* THREE FORKS  CLOUDY    64  64 100 N/A        N/A
* BOULDER HILL N/A       61  44  54 SW12       N/A
* MONIDA PASS  N/A       53  51  93 SE6        N/A
* RAYNOLDS PAS N/A       54  37  53 SE11       N/A
* WHITEHALL    N/A       63  50  63 SW5G11     N/A
* WISE RIVER   N/A       61  49  65 SE5        N/A
$$

MTZ009>010-012-014-046-048-049-054-230300-
EAST SLOPES AND CENTRAL MONTANA
CITY           SKY/WX    TMP DP  RH WIND       PRES   REMARKS
CUT BANK       PTCLDY    64  43  47 W9        29.91R
GREAT FALLS    MOCLDY    68  48  49 S10       29.89R
HELENA         CLOUDY    66  52  61 W7        29.96R
MALMSTROM AFB  MOCLDY    70  50  49 SW10      29.90R
* CONRAD       MOCLDY    73  45  37 W9         N/A
* EAST GLACIER N/A       66  42  42 SW7        N/A
* MONARCH      N/A       65  42  43 S9         N/A
* PENDROY      N/A       66  43  43 NW9        N/A
* ROGERS PASS  N/A       66  45  47 SE3G9      N/A
* SAINT MARY   N/A       69  41  36 S4G11      N/A
* SWEET GRASS  N/A       75  39  27 NW5        N/A
$$

MTZ011-013-016-021-035-040-045-047-050-051-230300-
NORTH CENTRAL MONTANA
CITY           SKY/WX    TMP DP  RH WIND       PRES   REMARKS
HAVRE          MOCLDY    64  52  65 SE3       29.82R
LEWISTOWN      MOCLDY    63  54  73 SE5       29.93S
* CHESTER      N/A       76  40  27 SW3        N/A
* DENTON       N/A       70  45  41 SE4        N/A
* GEYSER       N/A       62  48  60 S10        N/A
* JUDITH GAP   N/A       62  52  70 SW4        N/A
* LOMA         N/A       75  48  39 E3         N/A
$$

MTZ017>020-022>027-061-062-230300-
NORTHEAST MONTANA
CITY           SKY/WX    TMP DP  RH WIND       PRES   REMARKS
GLASGOW        CLEAR     66  48  52 E6        29.83R
GLENDIVE       PTCLDY    64  52  65 NE7       29.88R
JORDAN         CLEAR     63  52  68 SE5       29.85R
SIDNEY         PTCLDY   N/A N/A N/A CALM      29.87S
WOLF POINT     CLEAR     64  48  56 NE5       29.83R
* BEAVER HILL  N/A       66  50  56 E11        N/A
* CIRCLE       N/A       71  52  51 N/A        N/A
* LINDSAY DVD  N/A       64  49  58 NE4        N/A
* NAVAJO       N/A       67  44  44 SE6        N/A
$$

MTZ028>042-056>058-230300-
SOUTHCENTRAL AND SOUTHEAST MONTANA
CITY           SKY/WX    TMP DP  RH WIND       PRES   REMARKS
BAKER          PTCLDY    63  50  63 E7        29.90R
BILLINGS       MOCLDY    73  46  38 NW9       29.92R
LIVINGSTON     MOCLDY    63  48  58 W9        30.02R
MILES CITY     PTCLDY    70  46  42 NW6       29.85R
* LAUREL APT   PTCLDY    72  45  38 N/A        N/A
* ROUNDUP APT  MOCLDY    72  45  38 N/A        N/A
* ALZADA       N/A       69  50  51 NE5        N/A
* HYSHAM       N/A       72  47  41 SW1        N/A
* LAME DEER    N/A       69  47  46 W4         N/A
* REED POINT   N/A       70  45  41 W7         N/A
* ROSCOE HILL  N/A       61  41  48 SE9        N/A
$$

REGIONAL REPORTS...DAKOTAS
CITY           SKY/WX    TMP DP  RH WIND       PRES   REMARKS
WILLISTON      CLEAR     72  50  46 S6        29.87R
DICKINSON      PTCLDY    63  48  58 E9        29.90S
BEACH          N/A       61  50  67 SE7       29.90R
CROSBY         CLEAR     57  50  78 CALM      29.89S
TIOGA          CLEAR     66  50  56 S12       29.93S
WATFORD CITY   CLEAR     68  48  49 SE13      29.87S
BISMARCK       PTCLDY    63  48  58 E10       29.95S
GRAND FORKS    CLEAR     57  48  72 SE7       30.02R
FARGO          CLEAR     64  48  56 SE8       30.05R
BUFFALO SD     MOCLDY    68  50  53 E9        29.84S
RAPID CITY     CLOUDY    64  55  73 S8        29.93R
$$

REGIONAL REPORTS...WYOMING/IDAHO/WASHINGTON
CITY           SKY/WX    TMP DP  RH WIND       PRES   REMARKS
GILLETTE       CLOUDY    66  48  52 W10       29.95R
SHERIDAN       CLOUDY    63  50  63 CALM      29.95R
CODY           PTCLDY    66  43  43 W14G28    30.04R
YELLOWSTONE LA PTCLDY    48  46  93 CALM      30.28R
SALMON         PTCLDY    70  45  41 SE9       30.01R
MULLAN PASS    CLOUDY    61  43  52 W8        30.12S
SAND POINT     MOCLDY    66  54  65 CALM      29.89S
SPOKANE        CLOUDY    75  48  39 S7        29.91S

$$




USA.gov is the U.S. government's official web portal to all federal, state and local government web resources and services.